STARLINK-1776 (46682 NORAD) Tracking and Keplerian Element Data
This shows tracking and keplerian element data for the satellite.
Feedback or suggestion? Click here.
Element | Value |
Catalog | 46682 |
Name | STARLINK-1776 |
Epoch Orbit | 1513 |
Epoch Day | 21.16668981 |
Epoch Year | 2021 |
RAAN | 27.192 |
Inclination | 53.0541 |
Eccentricity | 0.0001648 |
Argument of Perigee | 54.0815 |
Mean Anonmoly | 74.8336 |
Mean Motion | 15.06468367 |
Decay Rate | -0.00038511 |
L1 | 1 46682U 20073N 21021.16668981 -.00038511 00000-0 -25757-2 0 9997 |
L2 | 2 46682 53.0541 27.1920 0001648 54.0815 74.8336 15.06468367 15136 |
Live tracking and technical data element details for STARLINK-1776 (NORAD 46682). STARLINK-1776 can be tracked NOW for your location showing map with azimuth and elevation plus other details from your city location.
Track the satellite on the map from your city or location and see movement details for azimuth, elevation, latitude, longitude, range, height, and movement on the map or in text.
IsCatalogInMostPopularTable: catalog: 46682, numindb: 31
Update: records affected: 1
GetName: 46682 STARLINK-1776
Hit Count: updated at: Fri, 22 Jan 2021 15:34:17 GMT